Location: �terpigny
(49.8910°N, 2.9249°E)
Time: 04:15:02
(UTC+00:00)

Cosmos 332 Rocket - Pass Details

Date: 01 June 2022
Orbit: 681 x 703 km, 74.0° (Epoch: 06 July)

Event Time Altitude Azimuth Distance (km) Brightness Sun altitude
Exits shadow 22:32:40 15° 112° (ESE) 1,832 5.6 -16.1°
Maximum altitude 22:33:50 16° 96° (E) 1,767 5.7 -16.2°
Drops below altitude 10° 22:36:39 10° 59° (ENE) 2,131 6.5 -16.3°
Sets 22:39:47 0° 38° (NE) 3,054 7.6 -16.5°
